"Pseudo-MPEC" for P22oG6X

Created 2026 Jul 28 21:35:11 UT using Find_Orb

Click here for an explanation of pseudo-MPECs

 
 Astrometry: 
     P22oG6X*0C2026 07 26.54141623 21 59.519-19 11 38.12   ~7QFZ 21.66wXNEOCPF52
     P22oG6X 0C2026 07 26.56458723 22 00.765-19 11 12.30   ~7QFZ 21.84wXNEOCPF52
     P22oG6X 0C2026 07 26.57609323 22 01.377-19 10 59.62   ~7QFZ 21.77wXNEOCPF52
     P22oG6X 0C2026 07 27.60478223 23 01.817-18 51 52.88   ~7RL5 21.88GVNEOCPF52
     P22oG6X 0C2026 07 27.60558923 23 01.847-18 51 51.83   ~7RL5 22.30GVNEOCPF52

Station data:
(F52) Pan-STARRS 2, Haleakala  (N20.707382 W156.255910)  US/Hawaii.
   Observers J. Herman, T. Lowe, P. Minguez, A. Schultz, I. Smith. Measurers
   K. Chambers, T. de Boer, J. Fairlamb, H. Gao, M. Huber, C.-C. Lin, E.
   Magnier, Y. Ramanjooloo, R. Wainscoat, R. Weryk. 1.8-m Ritchey-Chrétien +
   CCD.

Orbital elements:  P22oG6X
   Perihelion 2026 Jul 16.621775 +/- 39.7 TT = 14:55:21.3 (JD 2461238.121775)
Epoch 2026 Jul 27.0 TT = JDT 2461248.5   Earth MOID: 0.4661   Ju: 0.1908
M   0.535858840 +/- 8               Sa: 0.1760                   AutoNEOCP
n   0.051632996 +/- 0.0634          Peri.  315.588957 +/- 42
a   7.142515034 +/- 5.85            Node   353.608937 +/- 8
e   0.79503753 +/- 0.139            Incl.    8.554910 +/- 3.6
P  19.08872                H 21.16  G  0.15   U 10.9  SR
q 1.463947520 +/- 0.142    Q 12.82108254 +/- 9.52         (J2000 ecliptic)
From 5 observations 2026 July 26-27 (25.5 hr); mean residual 0".07
Residuals in arcseconds: 
260726 F52  .09+  .01+    260726 F52  .11-  .08-    260727 F52  .08-  .07+    
260726 F52  .01+  .07+    260727 F52  .08+  .07-    

Ephemerides (geocentric):
Date (UTC) HH   RA             Dec           delta  r     elong  mag " sig PA
---- --------  ------------   ------------  ------ ------ -----  --- --------
2026 07 28 22  23 24 14.505   -18 27 18.85  .54588 1.4722 139.2 21.9 34.6 140
2026 07 28 23  23 24 16.714   -18 26 32.33  .54582 1.4723 139.2 21.9 36.4 140
2026 07 29 00  23 24 18.918   -18 25 45.81  .54576 1.4723 139.2 21.9 38.3 140
2026 07 29 01  23 24 21.117   -18 24 59.29  .54570 1.4724 139.2 21.9 40.2 140
2026 07 29 02  23 24 23.310   -18 24 12.77  .54564 1.4724 139.3 21.9 42.1 140
2026 07 29 03  23 24 25.497   -18 23 26.25  .54558 1.4725 139.3 21.9 44.1 140
2026 07 29 04  23 24 27.679   -18 22 39.72  .54552 1.4725 139.3 21.9 46.1 140
2026 07 29 05  23 24 29.856   -18 21 53.20  .54546 1.4726 139.3 21.9 48.2 140
2026 07 29 06  23 24 32.026   -18 21 06.67  .54540 1.4727 139.4 21.9 50.3 140
2026 07 29 07  23 24 34.192   -18 20 20.15  .54534 1.4727 139.4 21.9 52.4 140
2026 07 29 08  23 24 36.351   -18 19 33.62  .54528 1.4728 139.4 21.9 54.6 140
2026 07 29 09  23 24 38.505   -18 18 47.09  .54522 1.4728 139.4 21.9 56.9 140
2026 07 29 10  23 24 40.654   -18 18 00.56  .54516 1.4729 139.5 21.9 59.1 140
2026 07 29 11  23 24 42.797   -18 17 14.03  .54510 1.4729 139.5 21.9 61.5 140
2026 07 29 12  23 24 44.935   -18 16 27.50  .54504 1.4730 139.5 21.9 63.8 140
2026 07 29 13  23 24 47.067   -18 15 40.97  .54498 1.4731 139.6 21.9 66.2 140
2026 07 29 14  23 24 49.193   -18 14 54.44  .54492 1.4731 139.6 21.9 68.7 140
2026 07 29 15  23 24 51.314   -18 14 07.91  .54487 1.4732 139.6 21.9 71.2 140
2026 07 29 16  23 24 53.429   -18 13 21.38  .54481 1.4732 139.6 21.9 73.7 140
2026 07 29 17  23 24 55.539   -18 12 34.85  .54475 1.4733 139.7 21.9 76.3 140
2026 07 29 18  23 24 57.643   -18 11 48.32  .54469 1.4734 139.7 21.9 78.9 141
2026 07 29 19  23 24 59.742   -18 11 01.78  .54464 1.4734 139.7 21.9 81.5 141
2026 07 29 20  23 25 01.835   -18 10 15.25  .54458 1.4735 139.7 21.9 84.3 141
2026 07 29 21  23 25 03.923   -18 09 28.72  .54452 1.4735 139.8 21.9 87.0 141
2026 07 29 22  23 25 06.005   -18 08 42.19  .54446 1.4736 139.8 21.9 89.8 141
2026 07 29 23  23 25 08.082   -18 07 55.65  .54441 1.4737 139.8 21.9 92.6 141
2026 07 30 00  23 25 10.153   -18 07 09.12  .54435 1.4737 139.9 21.9 95.5 141
2026 07 30 01  23 25 12.218   -18 06 22.58  .54430 1.4738 139.9 21.9 98.4 141
2026 07 30 02  23 25 14.278   -18 05 36.05  .54424 1.4738 139.9 21.9  101 141
2026 07 30 03  23 25 16.333   -18 04 49.52  .54418 1.4739 139.9 21.9  104 141
2026 07 30 04  23 25 18.382   -18 04 02.98  .54413 1.4740 140.0 21.9  107 141
2026 07 30 05  23 25 20.425   -18 03 16.45  .54407 1.4740 140.0 21.9  111 141
2026 07 30 06  23 25 22.463   -18 02 29.91  .54402 1.4741 140.0 21.9  114 141
2026 07 30 07  23 25 24.495   -18 01 43.38  .54396 1.4741 140.1 21.9  117 141
2026 07 30 08  23 25 26.522   -18 00 56.85  .54391 1.4742 140.1 21.9  120 141
2026 07 30 09  23 25 28.543   -18 00 10.31  .54385 1.4743 140.1 21.9  123 141
2026 07 30 10  23 25 30.559   -17 59 23.78  .54380 1.4743 140.1 21.9  127 141
2026 07 30 11  23 25 32.569   -17 58 37.25  .54375 1.4744 140.2 21.9  130 141
2026 07 30 12  23 25 34.574   -17 57 50.71  .54369 1.4745 140.2 21.9  133 141
2026 07 30 13  23 25 36.573   -17 57 04.18  .54364 1.4745 140.2 21.9  137 141
2026 07 30 14  23 25 38.567   -17 56 17.65  .54358 1.4746 140.2 21.9  140 141
2026 07 30 15  23 25 40.555   -17 55 31.12  .54353 1.4747 140.3 21.9  144 141
2026 07 30 16  23 25 42.537   -17 54 44.59  .54348 1.4747 140.3 21.9  147 141
2026 07 30 17  23 25 44.515   -17 53 58.06  .54342 1.4748 140.3 21.9  151 141
2026 07 30 18  23 25 46.486   -17 53 11.53  .54337 1.4748 140.4 21.9  155 141
2026 07 30 19  23 25 48.452   -17 52 25.00  .54332 1.4749 140.4 21.9  158 141
2026 07 30 20  23 25 50.413   -17 51 38.47  .54327 1.4750 140.4 21.9  162 141
2026 07 30 21  23 25 52.368   -17 50 51.94  .54322 1.4750 140.4 21.9  166 141